Weather Roundup
Issued by NWS Chicago, IL

Home | Current Version | Previous Version | Text Only | Print | Product List | Glossary On
Versions: 1 2 3 4 5 6 7 8 9 10 11 12 13 14 15 16 17 18 19 20 21 22 23 24 25 26 27 28 29 30 31 32 33 34 35 36 37 38 39 40 41 42 43 44 45 46 47 48 49 50
754
NZUS59 KLOT 190006
HRRLOT

CHICAGO AREA WEATHER ROUNDUP
NATIONAL WEATHER SERVICE CHICAGO/ROMEOVILLE IL
700 PM CDT TUE MAY 18 2021

NOTE: "FAIR" INDICATES FEW OR NO CLOUDS BELOW 12,000 FEET WITH NO
SIGNIFICANT WEATHER AND/OR OBSTRUCTIONS TO VISIBILITY.

* THESE STATIONS ARE NOT UNDER NWS QUALITY CONTROL. THEY ALSO MAY NOT
  REPORT WEATHER SUCH AS PRECIPITATION OR FOG.

ILZ005-006-012>014-019>023-190100-
NORTHEAST ILLINOIS

CITY           SKY/WX    TMP DP  RH WIND       PRES   REMARKS
OHARE          LGT RAIN  67  60  78 SE8       30.15F
6HR MIN TEMP:  67; 6HR MAX TEMP:  76; 6HR PCP:  0.03;

MIDWAY         LGT RAIN  68  61  78 S7        30.16S
6HR MIN TEMP:  68; 6HR MAX TEMP:  75; 6HR PCP:  0.03;

AURORA         LGT RAIN  64  61  90 SE9       30.14F
6HR MIN TEMP:  64; 6HR MAX TEMP:  71; 6HR PCP:  0.14;

LANSING*       LGT RAIN  66  62  86 SE5       30.17F
JOLIET*        RAIN      67  64  89 SE7       30.15F
WAUKEGAN       LGT RAIN  67  59  75 S7        30.16F
6HR MIN TEMP:  66; 6HR MAX TEMP:  70; 6HR PCP: TRACE;

DUPAGE AIRPORT LGT RAIN  64  60  87 SE6       30.15S FOG
6HR MIN TEMP:  64; 6HR MAX TEMP:  72; 6HR PCP:  0.07;

WHEELING       LGT RAIN  69  60  73 S9        30.17F
6HR MIN TEMP:  69; 6HR MAX TEMP:  78; 6HR PCP:  0.01;

KANKAKEE*      LGT RAIN  66  64  90 E8        30.16F
MORRIS*        LGT RAIN  65  64  96 SE9       30.13F
LEWIS AIRPORT* LGT RAIN  65  63  93 SE8       30.15F
NORTHERLY ISL*   N/A     63  57  81 SE6         N/A
$$

WIZ051-052-058>065-066-070>072-190100-
SOUTHEAST WISCONSIN

CITY           SKY/WX    TMP DP  RH WIND       PRES   REMARKS
MILWAUKEE      CLOUDY    65  56  72 SE6       30.16F
6HR MIN TEMP:  64; 6HR MAX TEMP:  70; 6HR PCP: TRACE;

KENOSHA*       LGT RAIN  72  57  59 S13G22    30.16S
RACINE*        CLOUDY    66  56  70 S10       30.18F
BURLINGTON       N/A     69  58  69 SE10      30.14F
WAUKESHA       DRIZZLE   64  57  77 SE9       30.16F
WEST BEND      DRIZZLE   63  55  77 SE6       30.16F
$$

INZ001>003-010>013-019-020-190100-
NORTHWEST INDIANA

CITY           SKY/WX    TMP DP  RH WIND       PRES   REMARKS
GARY*          LGT RAIN  68  61  77 SE5       30.17F
MICHIGAN CITY* NOT AVBL
RENSSELAER*    NOT AVBL
VALPARAISO     LGT RAIN  68  60  75 SE6       30.19S
$$

LMZ740>746-190100-
SOUTHERN LAKE MICHIGAN

STATION/POSITION TIME  SKY/WX   TEMP WIND        PRES    VSBY
                                AIR  DIR/SP/G
                 (UTC)          (F)  (DEG/KT/KT) (MB)    (MI)
HARRISON CRIB    NOT AVBL
NORTHERLY ISL    NOT AVBL
CALUMET HARBOR   NOT AVBL
BURNS HARBOR     NOT AVBL
MICHIGAN CITY    NOT AVBL
$$

ABBREVIATIONS USED IN REMARKS
   TC - TEMPERATURE IN CELSIUS
  WCI - WIND CHILL INDEX
   HX - HEAT INDEX
  VSB - VISIBILITY
$$




USA.gov is the U.S. government's official web portal to all federal, state and local government web resources and services.